Regional Weather Roundup
Issued by NWS Charleston, SC

Current Version | Previous Version | Graphics & Text | Print | Product List | Glossary On
Versions: 1 2 3 4 5 6 7 8 9 10 11 12 13 14 15 16 17 18 19 20 21 22 23 24 25 26 27 28 29 30 31 32 33 34 35 36 37 38 39 40 41 42 43 44 45 46 47 48 49 50
098 ASUS42 KCHS 111812 RWRCHS REGIONAL WEATHER ROUNDUP NATIONAL WEATHER SERVICE CHARLESTON SC 100 PM EST MON DEC 11 2017 NOTE: "FAIR" INDICATES FEW OR NO CLOUDS BELOW 12,000 FEET WITH NO SIGNIFICANT WEATHER AND/OR OBSTRUCTIONS TO VISIBILITY. NOT ALL STATIONS ARE QUALITY CONTROLLED. USE DATA WITH CAUTION... ESPECIALLY DEWPOINT OBSERVATIONS. SCZ027-030-031-034>040-042>050-111900- ...SOUTHEAST SOUTH CAROLINA... CITY SKY/WX TMP DP RH WIND PRES REMARKS N CHARLESTON SUNNY 54 31 41 NW7 30.13F 6HR MIN TEMP: 30; 6HR MAX TEMP: 55; WATERFRONT PRK NOT AVBL JOHNS ISLAND FAIR 57 32 38 CALM 30.13F PINOPOLIS NOT AVBL MONCKS CORNER FAIR 52 30 43 CALM 30.13F SUMMERVILLE FAIR 54 32 43 CALM 30.13F BEAUFORT MCAS SUNNY 55 34 45 MISG 30.14F 6HR MIN TEMP: 33; 6HR MAX TEMP: 55; BEAUFORT ARPT FAIR 54 34 47 NW7 30.14F HILTON HEAD IS SUNNY 54 32 43 W7 30.15F WALTERBORO CLEAR 54 32 43 NW5 30.14F ALLENDALE FAIR 54 32 43 SW5 30.12F ...SOUTHERN MIDLANDS AND PEE DEE... CITY SKY/WX TMP DP RH WIND PRES REMARKS GEORGETOWN FAIR 52 30 43 CALM 30.12F KINGSTREE FAIR 52 28 40 CALM 30.12F ORANGEBURG SUNNY 53 29 39 SW7 30.12F 6HR MIN TEMP: 29; 6HR MAX TEMP: 53; BARNWELL N/A 57 34 41 SW3 30.12F AIKEN FAIR 54 32 43 SW8 30.14F MANNING FAIR 52 27 37 MISG 30.12F COLUMBIA SUNNY 56 33 42 VRB3 30.10F 6HR MIN TEMP: 28; 6HR MAX TEMP: 56; SUMTER SUNNY 55 28 36 SW5 30.09F 6HR MIN TEMP: 31; 6HR MAX TEMP: 55; FLORENCE SUNNY 52 28 39 W3 30.11F 6HR MIN TEMP: 29; 6HR MAX TEMP: 53; MYRTLE BEACH SUNNY 51 29 42 VRB3 30.12F N MYRTLE BEACH SUNNY 50 32 50 SE3 30.10F 6HR MIN TEMP: 34; 6HR MAX TEMP: 50; $$ GAZ063-065-086>088-099>101-113>116-118-119-134>141-150-111900- ...SOUTHEAST GEORGIA... CITY SKY/WX TMP DP RH WIND PRES REMARKS SAVANNAH ARPT SUNNY 58 32 37 W7 30.15F 6HR MIN TEMP: 31; 6HR MAX TEMP: 58; HUNTER AAF SUNNY 59 32 36 W9 30.12F 6HR MIN TEMP: 30; 6HR MAX TEMP: 59; FORT STEWART SUNNY 59 32 37 W8 30.13F 6HR MIN TEMP: 28; 6HR MAX TEMP: 59; STATESBORO SUNNY 58 27 31 NW7 30.14F SYLVANIA CLEAR 57 36 45 W6 30.15F CLAXTON FAIR 59 34 39 SW7 30.16F ...CSRA...CENTRAL AND FAR SOUTHEAST GEORGIA... CITY SKY/WX TMP DP RH WIND PRES REMARKS THOMSON SUNNY 57 32 38 NW7 30.16F AUGUSTA-BUSH SUNNY 57 30 35 W5 30.11F 6HR MIN TEMP: 30; 6HR MAX TEMP: 58; AUGUSTA-DANIEL SUNNY 58 31 35 W7 30.12F SWAINSBORO FAIR 55 34 44 W8 30.15F VIDALIA SUNNY 61 36 39 NW6 30.15F EASTMAN FAIR 61 17 18 W6 30.18F HAZLEHURST FAIR 61 17 18 CALM 30.15F ALMA SUNNY 60 32 34 VRB7 30.16F 6HR MIN TEMP: 30; 6HR MAX TEMP: 60; WAYCROSS SUNNY 60 27 28 W6 30.17F JESUP FAIR 61 30 31 CALM 30.16F BAXLEY FAIR 57 32 38 W8 30.15F BRUNSWICK SUNNY 59 32 36 W5 30.18F SAINT SIMONS SUNNY 58 33 39 W9 30.17F 6HR MIN TEMP: 36; 6HR MAX TEMP: 58; $$ SCZ027-028-034-036>038-045-046-048>050-GAZ119-141-111900- ...LAKE AND SUPPLEMENTAL COASTAL OBSERVATIONS... STATION/POSITION TIME TEMP WIND PRES WAVE SWELL AIR SEA DIR/SP/G HT/PER HT/PER/DIR (UTC) (F) (DEG/KT/KT) (MB) (FT/S) (FT/S/D) WINYAH BAY 1645 47 330/ 3 1021.0 LAKE MURRAY 1720 50 220/ 4/ 6 1019.3 ACE BASIN NERRS 1645 51 270/ 3 1022.0 FORT PULASKI 1742 52 55 300/ 9/ 11 1021.3F SAPELO ISLAND NOT AVBL $$ ANZ835-935-AMZ111-154-330-350-352-354-370-450-454-472-111900- ...C-MAN AND BUOY OBSERVATIONS... STATION/POSITION TIME TEMP WIND PRES WAVE SWELL AIR SEA DIR/SP/G HT/PER HT/PER/DIR (UTC) (F) (DEG/KT/KT) (MB) (FT/S) (FT/S/D) BUOY 41004 1750 74 280/ 12/ 17 1020.0F 3/ 6 2/ 90/ 8 BUOY 41008 1750 53 61 270/ 10/ 12 1021.3F 2/ 3 2/ 50/ 9 FOLLY BEACH CMAN 1700 51 310/ 2/ 5 1021.7F CAPERS NEARSHORE 1708 46 58 280/ 4/ 8 1020.8F FRIPP NEARSHORE 1708 49 56 270/ 10/ 17 1020.7F STATION/POSITION TIME TEMP WIND PRES WAVE SWELL AIR SEA DIR/SP/G HT/PER HT/PER/DIR (UTC) (F) (DEG/KT/KT) (MB) (FT/S) (FT/S/D) 5E ST. MARYS GA 1730 60 N/A 1/ 9 FRYING PAN BUOY 1750 51 64 270/ 6/ 12 1019.3F 3/ 6 3/230/ 6 BUOY 41025 1750 52 75 280/ 8/ 14 1018.9F 4/ 6 3/210/ 6 CAPE LOOKOUT NC 1700 300/ 5/ 6 1020.2F BUOY 41002 1750 65 76 260/ 10/ 12 1019.1F 4/ 8 3/ 50/ 8 BUOY 41010 NOT AVBL ST AUGUSTINE FL 1800 54 62 40/ 6/ 7 1023.0F $$

USA.gov is the U.S. government's official web portal to all federal, state and local government web resources and services.